TimeCDT,TemperatureF,Dew PointF,Humidity,Sea Level PressureIn,VisibilityMPH,Wind Direction,Wind SpeedMPH,Gust SpeedMPH,PrecipitationIn,Events,Conditions,WindDirDegrees,DateUTC
12:53 AM,73.9,66.9,79,29.82,10.0,South,20.7,27.6,0.00,,Overcast,180,2014-04-04 05:53:00
1:53 AM,73.0,66.9,81,29.81,10.0,South,11.5,19.6,N/A,,Mostly Cloudy,190,2014-04-04 06:53:00
2:53 AM,73.9,66.9,79,29.83,10.0,SSW,5.8,17.3,N/A,,Overcast,200,2014-04-04 07:53:00
3:53 AM,73.0,66.9,81,29.83,10.0,South,8.1,-,N/A,,Overcast,190,2014-04-04 08:53:00
4:53 AM,72.0,66.9,84,29.87,10.0,NNW,10.4,18.4,0.00,,Overcast,340,2014-04-04 09:53:00
5:20 AM,64.0,62.1,93,29.92,1.5,West,12.7,21.9,0.15,Rain,Heavy Rain,280,2014-04-04 10:20:00
5:30 AM,63.0,62.1,97,29.87,0.5,WNW,19.6,28.8,0.65,Fog-Rain,Heavy Rain,290,2014-04-04 10:30:00
5:40 AM,63.0,62.1,97,29.88,1.0,WSW,10.4,24.2,0.84,Rain,Heavy Rain,240,2014-04-04 10:40:00
5:53 AM,63.0,62.1,97,29.87,1.5,WSW,5.8,-,1.01,Rain,Heavy Rain,240,2014-04-04 10:53:00
6:06 AM,63.0,62.1,97,29.91,3.0,South,11.5,18.4,0.10,Rain,Heavy Rain,190,2014-04-04 11:06:00
7:53 AM,63.0,62.1,97,29.94,10.0,Calm,Calm,-,0.08,Rain,Light Rain,0,2014-04-04 12:53:00
8:53 AM,64.0,63.0,96,29.99,10.0,SSW,3.5,-,0.00,,Overcast,210,2014-04-04 13:53:00
9:06 AM,64.0,63.0,96,29.95,10.0,Calm,Calm,-,N/A,,Overcast,0,2014-04-04 14:06:00
9:33 AM,64.0,63.0,96,29.96,10.0,West,6.9,-,N/A,,Mostly Cloudy,280,2014-04-04 14:33:00
9:53 AM,64.9,63.0,93,30.04,10.0,West,11.5,-,0.00,Rain,Light Rain,270,2014-04-04 14:53:00
10:27 AM,64.0,62.1,93,29.99,8.0,NW,4.6,-,0.03,Rain,Light Rain,310,2014-04-04 15:27:00
10:53 AM,63.0,60.1,90,30.01,10.0,NNW,10.4,21.9,0.04,,Overcast,330,2014-04-04 15:53:00
11:04 AM,60.1,55.0,83,30.00,10.0,NNW,11.5,20.7,N/A,,Overcast,330,2014-04-04 16:04:00
11:16 AM,59.0,52.0,78,30.01,10.0,NW,12.7,20.7,N/A,,Overcast,320,2014-04-04 16:16:00
11:53 AM,60.1,51.1,72,30.02,10.0,NNW,12.7,21.9,N/A,,Overcast,330,2014-04-04 16:53:00
12:53 PM,64.9,52.0,63,30.04,10.0,NNW,10.4,-,N/A,,Mostly Cloudy,340,2014-04-04 17:53:00
1:53 PM,66.9,52.0,59,30.04,10.0,NNW,8.1,-,N/A,,Clear,340,2014-04-04 18:53:00
2:53 PM,69.1,52.0,54,30.04,10.0,North,9.2,-,N/A,,Clear,350,2014-04-04 19:53:00
3:53 PM,69.1,50.0,51,30.03,10.0,WNW,6.9,-,N/A,,Clear,290,2014-04-04 20:53:00
4:53 PM,69.1,48.0,47,30.02,10.0,NW,8.1,-,N/A,,Clear,320,2014-04-04 21:53:00
5:53 PM,69.1,48.9,49,30.03,10.0,North,5.8,-,N/A,,Clear,10,2014-04-04 22:53:00
6:53 PM,66.9,48.0,51,30.03,10.0,North,3.5,-,N/A,,Clear,350,2014-04-04 23:53:00
7:53 PM,63.0,52.0,67,30.03,10.0,North,3.5,-,N/A,,Clear,350,2014-04-05 00:53:00
8:53 PM,59.0,51.1,75,30.07,10.0,NNE,5.8,-,N/A,,Clear,20,2014-04-05 01:53:00
9:53 PM,59.0,48.0,67,30.09,10.0,NNE,8.1,-,N/A,,Clear,30,2014-04-05 02:53:00
10:53 PM,57.0,45.0,64,30.10,10.0,NNE,8.1,-,N/A,,Clear,30,2014-04-05 03:53:00
11:53 PM,55.0,46.0,72,30.11,10.0,North,6.9,-,N/A,,Clear,10,2014-04-05 04:53:00